Zurück zum Katalog

SL-8 DEB

AktivLEO
NORAD 21212·DEBRIS·🇷🇺 Russia

Gestartet Feb 12, 1991 von Plesetsk Cosmodrome

Loading…

Nächste Überflüge (nächste 24 Stunden)

TLE

AktuellSource: Space-Track

Epoche: Sep 14, 2026, 09:10 UTC

1 21212U 91009BF  26257.38194937 -.00000019  00000-0 -75840-4 0  9993
2 21212  74.1539 225.2588 0231118  98.6373  53.8248 12.06914595562468

Verfolge SL-8 DEB in Echtzeit mit AllMySat

Download on the App Store